This is the latest recevied weather packets stored in our database for station/object N3AVN. If no packets are shown the sender has not sent any weather packets the latest 10 day(s).
| Time | Temp. | Humidity | Pressure | Rain* | Wind** | Luminosity | Snow |
|---|---|---|---|---|---|---|---|
| 1777754644 | 15° C | 62% | 1008.3 hPa | 0 mm | - | 467 W/m² | - |
| 1777754342 | 14.44° C | 56% | 1008.4 hPa | 0 mm | - | 113 W/m² | - |
| 1777754039 | 14.44° C | 50% | 1008.4 hPa | 0 mm | - | 98 W/m² | - |
| 1777753735 | 14.44° C | 58% | 1008.4 hPa | 0 mm | - | 124 W/m² | - |
| 1777753432 | 15° C | 52% | 1008.5 hPa | 0 mm | - | 309 W/m² | - |
| 1777753130 | 15.56° C | 55% | 1008.6 hPa | 0 mm | - | 239 W/m² | - |
| 1777752826 | 16.67° C | 50% | 1008.8 hPa | 0 mm | - | 214 W/m² | - |
| 1777752523 | 16.11° C | 51% | 1008.6 hPa | 0 mm | - | 502 W/m² | - |
| 1777752218 | 15° C | 51% | 1008.7 hPa | 0 mm | - | 621 W/m² | - |
| 1777751917 | 15° C | 51% | 1008.8 hPa | 0 mm | - | 579 W/m² | - |
| 1777751613 | 15° C | 52% | 1009 hPa | 0 mm | - | 334 W/m² | - |
| 1777751310 | 15.56° C | 56% | 1009 hPa | 0 mm | - | 363 W/m² | - |
| 1777751007 | 13.89° C | 58% | 1009.2 hPa | 0 mm | - | 267 W/m² | - |
| 1777750702 | 13.89° C | 57% | 1009.4 hPa | 0 mm | - | 497 W/m² | - |
| 1777750400 | 13.89° C | 60% | 1009.4 hPa | 0 mm | - | 184 W/m² | - |
| 1777750095 | 14.44° C | 57% | 1009.4 hPa | 0 mm | - | 440 W/m² | - |
| 1777749793 | 14.44° C | 58% | 1009.5 hPa | 0 mm | - | 564 W/m² | - |
| 1777749490 | 13.89° C | 60% | 1009.7 hPa | 0 mm | - | 356 W/m² | - |
| 1777749188 | 13.89° C | 62% | 1009.6 hPa | 0 mm | - | 404 W/m² | - |
| 1777748885 | 13.89° C | 63% | 1009.5 hPa | 0 mm | - | 311 W/m² | - |
| 1777748582 | 13.33° C | 64% | 1009.7 hPa | 0 mm | - | 532 W/m² | - |
| 1777748277 | 13.33° C | 68% | 1009.8 hPa | 0 mm | - | 281 W/m² | - |
| 1777747973 | 13.33° C | 74% | 1009.8 hPa | 0 mm | - | 225 W/m² | - |
| 1777747670 | 12.78° C | 75% | 1009.8 hPa | 0 mm | - | 557 W/m² | - |
| 1777747366 | 12.22° C | 75% | 1009.9 hPa | 0 mm | - | 194 W/m² | - |
* Rain latest hour (hover to see other rain measurements)
** Current wind speed in m/s (hover to see current wind gust speed)